GW0441 Weather Reports


Display with metric or nautical units.
time (UTC)temp
F
wind
direction
speed
MPH
gust
MPH
rain 1hr
in
rain 24hr
in
rain mn
in
humidity
%
barometer
mb
20260506014558 54 55 15.0 18.0 0.00 0.00 0.00 69 1010.4
20260506013046 55 41 11.0 19.0 0.00 0.00 0.00 68 1010.3
20260506011540 55 25 11.0 18.0 0.00 0.00 0.00 68 1009.8
20260506010058 56 41 12.0 18.0 0.00 0.00 0.00 68 1009.6
20260506004620 56 28 12.0 18.0 0.00 0.00 0.00 68 1009.4
20260506003051 56 40 15.0 19.0 0.00 0.00 0.00 67 1009.3
20260506001544 57 51 12.0 18.0 0.00 0.00 0.00 67 1009.2
20260506000045 57 38 13.0 19.0 0.00 0.00 0.00 68 1009.1
20260505234611 57 5 13.0 18.0 0.00 0.00 0.00 68 1009.2
20260505233045 58 29 15.0 19.0 0.00 0.00 0.00 67 1009.1
20260505231546 58 17 12.0 18.0 0.00 0.00 0.00 66 1008.7
20260505230047 59 355 14.0 19.0 0.00 0.00 0.00 64 1008.8
20260505224549 59 5 13.0 18.0 0.00 0.00 0.00 64 1009.0
20260505223100 60 5 12.0 19.0 0.00 0.00 0.00 64 1009.0
20260505221559 61 5 14.0 19.0 0.00 0.00 0.00 62 1009.1
20260505220050 63 11 8.0 17.0 0.00 0.00 0.00 60 1008.9
20260505214547 64 5 9.0 17.0 0.00 0.00 0.00 60 1008.8
20260505213048 65 15 8.0 17.0 0.00 0.00 0.00 58 1009.0
20260505211554 65 11 8.0 16.0 0.00 0.00 0.00 58 1008.9
20260505210046 65 18 10.0 15.0 0.00 0.00 0.00 57 1008.7
20260505204553 66 355 12.0 18.0 0.00 0.00 0.00 56 1008.7
20260505203045 67 24 11.0 17.0 0.00 0.00 0.00 54 1008.3
20260505201554 67 26 11.0 16.0 0.00 0.00 0.00 53 1008.0
20260505200056 67 14 7.0 16.0 0.00 0.00 0.00 54 1008.2
20260505194544 67 15 10.0 15.0 0.00 0.00 0.00 53 1008.4
20260505193049 68 33 11.0 16.0 0.00 0.00 0.00 53 1008.2
20260505191547 67 360 9.0 17.0 0.00 0.00 0.00 54 1008.1
20260505190050 69 352 10.0 18.0 0.00 0.00 0.00 52 1008.0
20260505184545 68 360 14.0 19.0 0.00 0.00 0.00 54 1007.9
20260505183048 67 324 12.0 18.0 0.00 0.00 0.00 56 1007.7
20260505181544 68 312 15.0 18.0 0.00 0.00 0.00 55 1007.7
20260505180053 69 315 12.0 18.0 0.00 0.00 0.00 56 1008.1
20260505174549 68 333 12.0 18.0 0.00 0.00 0.00 57 1007.8
20260505173048 68 340 11.0 18.0 0.00 0.00 0.00 57 1007.6
20260505171543 69 350 12.0 17.0 0.00 0.00 0.00 56 1007.4
20260505170049 69 326 13.0 19.0 0.00 0.00 0.00 57 1007.4
20260505164546 69 342 14.0 18.0 0.00 0.00 0.00 59 1006.9
20260505163045 68 320 12.0 18.0 0.00 0.00 0.00 61 1006.5
20260505161544 68 352 11.0 19.0 0.00 0.00 0.00 63 1006.1
20260505153048 71 321 15.0 19.0 0.00 0.00 0.00 62 1005.5
20260505151546 71 338 15.0 19.0 0.00 0.00 0.00 63 1005.1
20260505124548 69 226 7.0 10.0 0.00 0.00 0.00 68 1001.9
20260505123042 69 232 6.0 11.0 0.00 0.00 0.00 68 1001.4
20260505121547 69 192 6.0 10.0 0.00 0.00 0.00 68 1001.2
20260505120051 69 207 7.0 9.0 0.00 0.00 0.00 68 1001.4
20260505114547 69 200 7.0 10.0 0.00 0.00 0.00 67 1001.1
20260505113041 69 213 9.0 11.0 0.00 0.00 0.00 66 1000.5
20260505111544 70 215 9.0 12.0 0.00 0.00 0.00 65 1000.4
20260505101546 72 205 7.0 10.0 0.00 0.00 0.00 62 1000.1
20260505100048 72 203 7.0 10.0 0.00 0.00 0.00 61 1000.2
20260505094545 72 204 6.0 9.0 0.00 0.00 0.00 61 1000.0
20260505093045 72 193 7.0 10.0 0.00 0.00 0.00 61 1000.1
20260505091552 72 194 6.0 9.0 0.00 0.00 0.00 60 1000.1
20260505090050 73 211 7.0 10.0 0.00 0.00 0.00 60 1000.3
20260505084548 73 210 7.0 11.0 0.00 0.00 0.00 60 1000.4
20260505083041 73 198 6.0 9.0 0.00 0.00 0.00 60 1000.4
20260505081543 73 208 6.0 11.0 0.00 0.00 0.00 59 1000.4
20260505080053 73 217 7.0 11.0 0.00 0.00 0.00 60 1000.5
20260505074544 73 213 7.0 10.0 0.00 0.00 0.00 60 1000.5
20260505073053 74 196 7.0 10.0 0.00 0.00 0.00 59 1000.7
20260505071545 74 211 7.0 12.0 0.00 0.00 0.00 59 1000.8
20260505070053 74 205 9.0 13.0 0.00 0.00 0.00 59 1001.0
20260505064551 75 215 8.0 12.0 0.00 0.00 0.00 59 1001.2
20260505063109 75 203 9.0 13.0 0.00 0.00 0.00 59 1001.2
20260505061556 75 207 8.0 12.0 0.00 0.00 0.00 60 1001.3
20260505060049 75 196 7.0 11.0 0.00 0.00 0.00 61 1001.3
20260505054553 76 177 6.0 15.0 0.00 0.00 0.00 62 1001.4
20260505053055 76 188 6.0 10.0 0.00 0.00 0.00 62 1001.4
20260505051547 76 204 6.0 12.0 0.00 0.00 0.00 62 1001.6
20260505041555 78 180 9.0 15.0 0.00 0.00 0.00 60 1001.9
20260505040055 78 180 10.0 17.0 0.00 0.00 0.00 60 1001.9
20260505034550 78 177 10.0 17.0 0.00 0.00 0.00 59 1001.9
20260505033045 79 178 12.0 19.0 0.00 0.00 0.00 59 1001.9
20260505031553 79 161 11.0 21.0 0.00 0.00 0.00 58 1001.7
20260505030050 80 194 10.0 20.0 0.00 0.00 0.00 56 1001.8
20260505024556 80 169 10.0 18.0 0.00 0.00 0.00 55 1001.7
20260505023046 80 185 8.0 19.0 0.00 0.00 0.00 54 1001.6
20260505021547 81 178 11.0 18.0 0.00 0.00 0.00 53 1001.4
20260505020050 82 182 11.0 19.0 0.00 0.00 0.00 52 1001.6